Regional Weather Roundup
Issued by NWS

Home | Current Version | Previous Version | Text Only | Print | Product List | Glossary Off
Versions: 1 2 3 4 5 6 7 8 9 10 11 12 13 14 15 16 17 18 19 20 21 22 23 24 25 26 27 28 29 30 31 32 33 34 35 36 37 38 39 40 41 42 43 44 45 46 47 48 49 50

000
ASUS43 KFSD 242110
RWRSD

WEATHER ROUNDUP FOR SOUTH DAKOTA
NATIONAL WEATHER SERVICE SIOUX FALLS SD
400 PM CDT THU MAY 24 2018

NOTE: "FAIR" INDICATES FEW OR NO CLOUDS BELOW 12,000 FEET WITH NO
SIGNIFICANT WEATHER AND/OR OBSTRUCTIONS TO VISIBILITY.


SDZ001>005-009-010-012>017-242200-
NORTHWEST AND NORTH CENTRAL SOUTH DAKOTA

CITY           SKY/WX    TMP DP  RH WIND       PRES   REMARKS
BUFFALO          N/A     81  52  36 W24G31    29.83S
FAITH            N/A     80  55  42 W20       29.88S
MOBRIDGE       FAIR      86  57  37 W12       29.79S
$$

SDZ012>016-024>037-041>051-057-063-072>074-242200-
SOUTHWEST AND SOUTH CENTRAL SOUTH DAKOTA

CITY           SKY/WX    TMP DP  RH WIND       PRES   REMARKS
RAPID CTY ARPT FAIR      80  54  40 NE6       29.93S
PIERRE         FAIR      84  59  42 W14G22    29.83S
CUSTER         FAIR      72  44  36 W14G22    30.06R
ELLSWORTH AFB  FAIR      78  53  41 CALM      29.93S
PHILIP         FAIR      82  58  43 NW8       29.87S
PINE RIDGE     FAIR      82  50  32 W13G23    29.95F
SPEARFISH      FAIR      75  50  41 NW12G18   29.96S
WINNER         FAIR      85  65  51 S10       29.88S
$$

SDZ004>011-016>023-039-040-242200-
NORTHEAST SOUTH DAKOTA

CITY           SKY/WX    TMP DP  RH WIND       PRES   REMARKS
ABERDEEN       FAIR      88  62  41 S14G26    29.80F
WATERTOWN      FAIR      85  63  47 SW18G26   29.86F
BROOKINGS      FAIR      86  66  51 S21G28    29.88F
SISSETON         N/A     89  62  40 S15G25    29.81F
$$

SDZ017-020-022-023-036>040-048>070-242200-
SOUTHEAST SOUTH DAKOTA

CITY           SKY/WX    TMP DP  RH WIND       PRES   REMARKS
SIOUX FALLS    LGT RAIN  82  63  52 S15G24    29.89F
HURON          FAIR      85  63  47 SW18G30   29.84F
CHAMBERLAIN    FAIR      85  70  60 S14G20    29.86F
MITCHELL       FAIR      87  66  49 S15G28    29.86F
YANKTON        FAIR      86  63  45 SW9       29.90R
$$

ABBREVIATIONS USED IN REMARKS
   TC - TEMPERATURE IN CELSIUS
  WCI - WIND CHILL INDEX
   HX - HEAT INDEX
  VSB - VISIBILITY





USA.gov is the U.S. government's official web portal to all federal, state and local government web resources and services.